Home   Weather   Jerez de la Frontera   Past weeks
Flag for Spain

Past Weather in Jerez de la Frontera, Cádiz, Spain — Yesterday and Last 2 Weeks

Now
75 °F

Sunny.


Feels Like: 77 °F
Forecast: 77 / 68 °F
Wind: 3 mph from North

Location: Rota Airport
Current Time: Aug 14, 2020 at 10:59:46 am
Latest Report: Aug 14, 2020 at 10:00 am
Visibility: 10 mi
Pressure29.98 "Hg
Humidity: 69%
Dew Point: 64 °F
Location of Jerez de la FronteraLocation

Past Weather in Jerez de la Frontera — Graph

°F

Jerez de la Frontera Temperature Yesterday

Maximum temperature yesterday: 75 °F (at 1:30 pm)
Minimum temperature yesterday: 68 °F (at 7:00 am)
Average temperature yesterday: 73 °F

High & Low Weather Summary for the Past Weeks

 TemperatureHumidityPressure
High97 °F (Aug 6, 4:00 pm)100% (Jul 31, 5:30 am)30.07 "Hg (Jul 31, 5:30 am)
Low64 °F (Aug 14, 8:00 am)26% (Aug 6, 7:30 pm)29.77 "Hg (Aug 5, 6:30 pm)
Average78 °F75%29.94 "Hg
* Reported Jul 30 9:00 am — Aug 14 9:30 am, Jerez de la Frontera. Weather by CustomWeather, © 2020

Note: Actual official high and low records may vary slightly from our data, if they occured in-between our weather recording intervals... More about our weather records

Jerez de la Frontera Weather History for the Previous 24 Hours

Scroll right to see more
 ConditionsComfort  
Time TempWeatherWind HumidityBarometerVisibility
9:30 am
Fri, Aug 14
73 °FClear.No wind74%29.98 "Hg6 mi
9:00 am70 °FClear.1 mph88%29.98 "Hg5 mi
8:30 am66 °FClear.5 mph94%29.95 "Hg5 mi
8:00 am64 °FClear.6 mph94%29.95 "Hg5 mi
7:30 am68 °FClear.5 mph88%29.95 "Hg10 mi
7:00 am72 °FPassing clouds.3 mph88%29.95 "HgN/A
6:30 am72 °FClear.5 mph83%29.95 "Hg10 mi
6:00 am72 °FClear.5 mph83%29.95 "Hg10 mi
5:30 am72 °FClear.6 mph88%29.95 "Hg10 mi
5:00 am72 °FClear.7 mph83%29.95 "Hg10 mi
4:30 am72 °FClear.7 mph88%29.95 "Hg10 mi
4:00 am72 °FClear.6 mph83%29.95 "Hg10 mi
3:30 am72 °FPassing clouds.7 mph88%29.98 "HgN/A
3:00 am72 °FClear.6 mph83%29.98 "Hg10 mi
2:30 am72 °FClear.6 mph83%29.98 "Hg10 mi
2:00 am70 °FPassing clouds.5 mph88%29.98 "HgN/A
1:30 am70 °FClear.5 mph88%29.98 "Hg10 mi
1:00 am70 °FClear.5 mph88%29.98 "Hg10 mi
12:30 am72 °FPassing clouds.6 mph83%29.98 "HgN/A
12:00 am72 °FPassing clouds.6 mph83%30.01 "HgN/A
11:30 pm
Thu, Aug 13
72 °FClear.6 mph83%30.01 "Hg10 mi
11:00 pm72 °FClear.6 mph83%29.98 "Hg10 mi
10:30 pm72 °FPassing clouds.6 mph83%29.98 "HgN/A
10:00 pm72 °FClear.8 mph88%29.98 "Hg10 mi
9:30 pm72 °FPassing clouds.12 mph83%29.98 "HgN/A
9:00 pm73 °FSunny.13 mph78%29.98 "Hg10 mi
8:30 pm73 °FPassing clouds.12 mph78%29.95 "HgN/A
8:00 pm75 °FPassing clouds.12 mph74%29.95 "HgN/A
7:30 pm75 °FSunny.12 mph74%29.95 "Hg10 mi
7:00 pm75 °FPassing clouds.12 mph74%29.98 "HgN/A
6:30 pm75 °FSunny.13 mph74%29.98 "Hg10 mi
6:00 pm75 °FPassing clouds.10 mph74%29.98 "HgN/A
5:30 pm75 °FPassing clouds.10 mph74%29.98 "HgN/A
5:00 pm75 °FPassing clouds.10 mph74%29.98 "HgN/A
4:30 pm75 °FPassing clouds.10 mph74%30.01 "HgN/A
4:00 pm75 °FScattered clouds.10 mph74%30.01 "HgN/A
3:30 pm75 °FPartly sunny.10 mph74%30.01 "HgN/A
2:30 pm75 °FPartly sunny.10 mph74%30.01 "HgN/A
2:00 pm75 °FPartly sunny.10 mph74%30.01 "HgN/A
1:30 pm75 °FPartly sunny.9 mph74%30.04 "HgN/A
1:00 pm73 °FOvercast.9 mph78%30.04 "HgN/A
12:30 pm73 °FOvercast.9 mph78%30.04 "HgN/A
12:00 pm73 °FOvercast.10 mph78%30.04 "HgN/A
11:30 am73 °FOvercast.9 mph78%30.01 "HgN/A
11:00 am73 °FPartly sunny.8 mph78%30.01 "HgN/A
10:30 am73 °FPartly sunny.8 mph78%30.01 "HgN/A
10:00 am73 °FPartly sunny.7 mph83%30.01 "HgN/A
Weather by CustomWeather, © 2020

See weather overview